Regional Weather Roundup
Issued by NWS

Home | Current Version | Previous Version | Graphics & Text | Print | Product List | Glossary On
Versions: 1 2 3 4 5 6 7 8 9 10 11 12 13 14 15 16 17 18 19 20 21 22 23 24 25 26 27 28 29 30 31 32 33 34 35 36 37 38 39 40 41 42 43 44 45 46 47 48 49 50
000
ASUS43 KLOT 160258
RWRIL

ILLINOIS REGIONAL WEATHER ROUNDUP
NATIONAL WEATHER SERVICE CHICAGO/ROMEOVILLE IL
1000 PM CDT MON SEP 15 2014

NOTE: "FAIR" INDICATES FEW OR NO CLOUDS BELOW 12,000 FEET WITH NO
SIGNIFICANT WEATHER AND/OR OBSTRUCTIONS TO VISIBILITY.

* THESE STATIONS ARE NOT UNDER NWS QUALITY CONTROL. THEY ALSO MAY NOT
  REPORT WEATHER SUCH AS PRECIPITATION OR FOG.

ILZ001-002-007-009-015-016-024-160400-
NORTHWEST ILLINOIS

CITY           SKY/WX    TMP DP  RH WIND       PRES   REMARKS
MOLINE         CLEAR     52  48  86 N3        30.20S
$$

ILZ003-004-008-010-011-017-018-160400-
NORTH CENTRAL ILLINOIS

CITY           SKY/WX    TMP DP  RH WIND       PRES   REMARKS
ROCKFORD       NOT AVBL
$$

ILZ005-006-012>014-019>023-160400-
NORTHEAST ILLINOIS

CITY           SKY/WX    TMP DP  RH WIND       PRES   REMARKS
CHICAGO-OHARE  PTCLDY    54  48  80 NW8       30.16R
CHICAGO-MIDWAY MOCLDY    57  51  80 N9        30.15R
AURORA         CLOUDY    54  50  86 NW6       30.18R
WAUKEGAN       CLEAR     48  46  93 W3        30.16R FOG
DUPAGE AIRPORT PTCLDY    53  50  89 N6        30.16R
WHEELING       CLEAR     52  48  86 N5        30.18R
NORTHERLY ISL    N/A     57  51  80 N9          N/A
$$

LMZ740>746-160400-
SOUTHERN LAKE MICHIGAN

STATION/POSITION SKY/WX   TEMP    WIND        PRES    VSBY  WAVE
                          AIR SEA DIR/SP/G                  HT/PER
                          (F)     (DEG/KT/KT) (MB)    (MI)  (FT/S)
SOUTHERN BUOY              57 64  350/ 12/ 14 1020.5R         2/ 4
WAUKEGAN HARBOR            53     320/  8/  9   N/A
HARRISON CRIB              58      10/ 15/ 17   N/A
BURNHAM HARBOR             58     350/ 10/ 12   N/A
CALUMET HARBOR             58                   N/A
MICHIGAN CITY              60     350/ 17/ 19   N/A
MICHIGAN CITY 6N           60 64   10/ 12/ 17   N/A           3/ 3
ST. JOSEPH                 60 66   30/ 14/ 19   N/A           3/ 3
$$

ILZ025>027-034>036-040-047-049-050-058-095>099-160400-
WEST-CENTRAL ILLINOIS

CITY           SKY/WX    TMP DP  RH WIND       PRES   REMARKS
$$

ILZ028>032-037-038-041>044-048-051>054-059>061-160400-
CENTRAL ILLINOIS

CITY           SKY/WX    TMP DP  RH WIND       PRES   REMARKS
PEORIA         NOT AVBL
SPRINGFIELD    PTCLDY    57  55  93 N7        30.17R
TAYLORVILLE    NOT AVBL
$$

ILZ033-039-045-046-055>057-062-063-160400-
EAST-CENTRAL ILLINOIS

CITY           SKY/WX    TMP DP  RH WIND       PRES   REMARKS
MATTOON        CLOUDY    59  57  93 N12       30.12R
$$

ILZ079-100>102-160400-
SOUTHWEST ILLINOIS

CITY           SKY/WX    TMP DP  RH WIND       PRES   REMARKS
BELLEVILLE     CLOUDY    63  63 100 W9        30.12R
CAHOKIA*       CLOUDY    64  61  90 N3        30.14R
$$

ILZ064>066-069>071-074>076-080>082-084>086-088>090-092>094-160400-
SOUTH-CENTRAL ILLINOIS

CITY           SKY/WX    TMP DP  RH WIND       PRES   REMARKS
CARBONDALE     CLOUDY    70  66  87 NW6       30.10R
$$

ILZ067-068-072-073-078-083-087-091-160400-
SOUTHEAST ILLINOIS

CITY           SKY/WX    TMP DP  RH WIND       PRES   REMARKS
$$

ABBREVIATIONS USED IN REMARKS
   TC - TEMPERATURE IN CELSIUS
  WCI - WIND CHILL INDEX
   HX - HEAT INDEX
  VSB - VISIBILITY
$$



USA.gov is the U.S. government's official web portal to all federal, state and local government web resources and services.